Lacon, IL

5:10 AM CDT on April 25, 2017 (GMT -0500)
Lacon

Weather History for KC75 - November, 2011

Change the Weather History Date:

Friday, November 25, 2011

  Actual Average (KPIA) Record (KPIA)
Temperature  
Mean Temperature 49 °F -  
Max Temperature 57 °F 46 °F 68 °F (1915)
Min Temperature 41 °F 29 °F -1 °F (1950)
Degree Days  
Heating Degree Days 16    
Moisture  
Dew Point 42 °F    
Average Humidity 78    
Maximum Humidity 91    
Minimum Humidity 64    
Precipitation  
Precipitation 0.00 in - - ()
Sea Level Pressure  
Sea Level Pressure 29.96 in    
Wind  
Wind Speed 13 mph (South)    
Max Wind Speed 21 mph    
Max Gust Speed 25 mph    
Visibility 9 miles    
Events      
Averages and records for this station are not official NWS values.
T = Trace of Precipitation, MM = Missing Value Source: NWS Daily Summary

Daily Weather History Graph

Daily Weather History Graph

Search for Another Location

Airport or City:

Trip Planner

Search our weather history database for the weather conditions in past years. The results will help you decide how hot, cold, wet, or windy it might be!

Date:

Astronomy

Nov. 25, 2011 Rise Set
Actual Time 6:56 AM CST 4:32 PM CST
Civil Twilight 6:25 AM CST 5:02 PM CST
Nautical Twilight 5:52 AM CST 5:36 PM CST
Astronomical Twilight 5:19 AM CST 6:09 PM CST
Moon 7:24 AM CST 4:59 PM CST
Length of Visible Light 10h 36m
Length of Day
9h 35m
New Moon, 0% of the Moon is Illuminated
Nov 25
New Moon
Dec 2
First Quarter
Dec 10
Full
Dec 17
Last Quarter
Dec 24
New

Hourly Weather History & Observations

Time (CST) Temp. Windchill Dew Point Humidity Pressure Visibility Wind Dir Wind Speed Gust Speed Precip Events Conditions
12:15 AM 46.4 °F 39.8 °F 42.1 °F 85% 30.05 in 10.0 mi South 16.1 mph 24.2 mph N/A   Clear
12:35 AM 46.4 °F 39.2 °F 41.9 °F 84% 30.05 in 10.0 mi South 18.4 mph 21.9 mph N/A   Clear
12:55 AM 45.9 °F 39.7 °F 41.9 °F 86% 30.04 in 10.0 mi South 13.8 mph 25.3 mph N/A   Clear
1:15 AM 45.9 °F 39.1 °F 41.4 °F 84% 30.03 in 10.0 mi South 16.1 mph - N/A   Clear
1:35 AM 45.9 °F 40.4 °F 41.2 °F 84% 30.03 in 10.0 mi South 11.5 mph 17.3 mph N/A   Clear
1:55 AM 45.7 °F 39.8 °F 41.0 °F 84% 30.03 in 10.0 mi South 12.7 mph 20.7 mph N/A   Clear
2:15 AM 45.3 °F 39.3 °F 40.6 °F 84% 30.03 in 10.0 mi South 12.7 mph 17.3 mph N/A   Clear
2:35 AM 44.8 °F 39.0 °F 40.3 °F 84% 30.03 in 10.0 mi South 11.5 mph 19.6 mph N/A   Clear
2:55 AM 44.1 °F 37.7 °F 40.1 °F 86% 30.03 in 10.0 mi South 12.7 mph 18.4 mph N/A   Clear
3:15 AM 43.7 °F 39.1 °F 39.7 °F 86% 30.03 in 7.0 mi South 8.1 mph 19.6 mph N/A   Clear
3:35 AM 43.2 °F 37.0 °F 39.6 °F 87% 30.03 in 7.0 mi South 11.5 mph 16.1 mph N/A   Clear
3:55 AM 42.4 °F 36.1 °F 39.2 °F 88% 30.02 in 7.0 mi South 11.5 mph 16.1 mph N/A   Clear
4:15 AM 42.3 °F 36.3 °F 39.2 °F 89% 30.02 in 7.0 mi South 10.4 mph 17.3 mph N/A   Clear
4:35 AM 41.9 °F 35.9 °F 39.0 °F 90% 30.02 in 7.0 mi South 10.4 mph 17.3 mph N/A   Clear
4:55 AM 41.9 °F 35.9 °F 38.8 °F 89% 30.02 in 7.0 mi South 10.4 mph - N/A   Clear
5:15 AM 41.7 °F 35.6 °F 38.8 °F 89% 30.02 in 7.0 mi South 10.4 mph - N/A   Clear
5:35 AM 41.9 °F 36.9 °F 38.8 °F 89% 30.02 in 7.0 mi South 8.1 mph - N/A   Clear
5:55 AM 41.5 °F 35.4 °F 38.7 °F 89% 30.01 in 7.0 mi SSE 10.4 mph - N/A   Clear
6:15 AM 41.5 °F 34.6 °F 38.7 °F 89% 30.01 in 7.0 mi South 12.7 mph 18.4 mph N/A   Clear
6:35 AM 41.5 °F 35.4 °F 38.7 °F 89% 30.01 in 7.0 mi South 10.4 mph - N/A   Clear
6:55 AM 41.4 °F 35.2 °F 38.7 °F 90% 30.01 in 7.0 mi South 10.4 mph 18.4 mph N/A   Clear
7:15 AM 41.2 °F 34.5 °F 38.7 °F 91% 30.01 in 7.0 mi South 11.5 mph 16.1 mph N/A   Clear
7:35 AM 41.4 °F 35.2 °F 38.7 °F 90% 30.00 in 7.0 mi South 10.4 mph 18.4 mph N/A   Clear
7:55 AM 41.9 °F 35.4 °F 38.8 °F 89% 30.00 in 7.0 mi South 11.5 mph 18.4 mph N/A   Clear
8:15 AM 43.0 °F 36.4 °F 39.4 °F 87% 30.00 in 7.0 mi South 12.7 mph 18.4 mph N/A   Clear
8:35 AM 44.1 °F 39.5 °F 39.6 °F 84% 30.00 in 10.0 mi South 8.1 mph 16.1 mph N/A   Clear
8:55 AM 45.0 °F 39.3 °F 39.7 °F 82% 29.99 in 10.0 mi South 11.5 mph 19.6 mph N/A   Clear
9:15 AM 45.7 °F 39.5 °F 40.1 °F 81% 29.98 in 10.0 mi South 13.8 mph 24.2 mph N/A   Clear
9:35 AM 47.3 °F - 40.3 °F 77% 29.98 in 10.0 mi South 16.1 mph 24.2 mph N/A   Clear
9:55 AM 48.2 °F - 40.6 °F 75% 29.97 in 10.0 mi South 17.3 mph 25.3 mph N/A   Clear
10:15 AM 48.9 °F - 40.8 °F 74% 29.98 in 10.0 mi South 15.0 mph 19.6 mph N/A   Clear
10:35 AM 50.0 °F - 41.4 °F 72% 29.97 in 10.0 mi South 17.3 mph 24.2 mph N/A   Clear
10:55 AM 50.9 °F - 41.4 °F 70% 29.96 in 10.0 mi South 18.4 mph 25.3 mph N/A   Clear
11:15 AM 51.8 °F - 41.9 °F 69% 29.95 in 10.0 mi South 17.3 mph 25.3 mph N/A   Clear
11:35 AM 52.7 °F - 42.4 °F 68% 29.95 in 10.0 mi South 20.7 mph 25.3 mph N/A   Clear
11:55 AM 53.2 °F - 43.0 °F 68% 29.93 in 10.0 mi SSW 13.8 mph 21.9 mph N/A   Clear
12:15 PM 54.3 °F - 43.5 °F 67% 29.91 in 10.0 mi South 16.1 mph 23.0 mph N/A   Clear
12:35 PM 55.4 °F - 43.9 °F 65% 29.91 in 10.0 mi South 17.3 mph 21.9 mph N/A   Clear
12:55 PM 56.1 °F - 44.2 °F 64% 29.90 in 10.0 mi South 13.8 mph 21.9 mph N/A   Clear
1:15 PM 55.0 °F - 44.1 °F 67% 29.90 in 10.0 mi South 12.7 mph 21.9 mph N/A   Clear
1:35 PM 55.4 °F - 44.8 °F 67% 29.90 in 10.0 mi South 13.8 mph 21.9 mph N/A   Clear
1:55 PM 55.9 °F - 45.3 °F 68% 29.90 in 10.0 mi South 13.8 mph 20.7 mph N/A   Clear
2:15 PM 57.2 °F - 45.5 °F 65% 29.88 in 10.0 mi South 18.4 mph 25.3 mph N/A   Clear
2:35 PM 57.7 °F - 45.7 °F 64% 29.88 in 10.0 mi SSW 13.8 mph 21.9 mph N/A   Clear
2:55 PM 56.8 °F - 45.7 °F 66% 29.89 in 10.0 mi South 11.5 mph 18.4 mph N/A   Clear
3:15 PM 57.4 °F - 46.2 °F 66% 29.88 in 10.0 mi South 12.7 mph - N/A   Clear
3:35 PM 56.5 °F - 45.9 °F 68% 29.88 in 10.0 mi South 11.5 mph 19.6 mph N/A   Clear
3:55 PM 56.3 °F - 45.9 °F 68% 29.87 in 10.0 mi South 9.2 mph - N/A   Clear
4:15 PM 56.5 °F - 46.0 °F 68% 29.87 in 10.0 mi South 8.1 mph - N/A   Clear
4:35 PM 56.7 °F - 46.4 °F 69% 29.87 in 10.0 mi SSE 9.2 mph - N/A   Clear
4:55 PM 56.5 °F - 46.0 °F 68% 29.87 in 10.0 mi SSE 6.9 mph - N/A   Clear
5:15 PM 56.3 °F - 46.0 °F 68% 29.87 in 10.0 mi SSE 8.1 mph - N/A   Clear
5:35 PM 56.3 °F - 46.0 °F 68% 29.87 in 10.0 mi SSE 9.2 mph - N/A   Clear
5:55 PM 56.5 °F - 45.7 °F 67% 29.87 in 10.0 mi SSE 9.2 mph 16.1 mph N/A   Clear
6:15 PM 56.7 °F - 45.3 °F 66% 29.87 in 10.0 mi SSE 13.8 mph 18.4 mph N/A   Clear
6:35 PM 56.5 °F - 45.5 °F 67% 29.86 in 10.0 mi SSE 12.7 mph 17.3 mph N/A   Clear
6:55 PM 55.4 °F - 46.4 °F 72% 29.86 in 10.0 mi SSE 10.4 mph 19.6 mph N/A   Clear
7:15 PM 55.4 °F - 46.6 °F 72% 29.87 in 10.0 mi South 13.8 mph 21.9 mph N/A   Clear
7:35 PM 55.4 °F - 46.2 °F 71% 29.87 in 10.0 mi SSE 12.7 mph 19.6 mph N/A   Clear
7:55 PM 55.4 °F - 45.9 °F 70% 29.87 in 10.0 mi SSE 13.8 mph 19.6 mph N/A   Clear
8:15 PM 55.4 °F - 45.5 °F 69% 29.87 in 10.0 mi South 12.7 mph 17.3 mph N/A   Clear
8:35 PM 55.4 °F - 44.8 °F 67% 29.87 in 10.0 mi South 12.7 mph - N/A   Clear
8:55 PM 55.9 °F - 44.4 °F 65% 29.87 in 10.0 mi South 16.1 mph 21.9 mph N/A   Clear
9:15 PM 56.1 °F - 44.2 °F 64% 29.87 in 10.0 mi South 13.8 mph 26.5 mph N/A   Clear
9:35 PM 55.6 °F - 44.6 °F 67% 29.88 in 10.0 mi South 16.1 mph 24.2 mph N/A   Clear
9:55 PM 55.2 °F - 44.8 °F 68% 29.88 in 10.0 mi South 15.0 mph 24.2 mph N/A   Clear
10:15 PM 54.9 °F - 45.1 °F 70% 29.88 in 10.0 mi South 16.1 mph 23.0 mph N/A   Clear
10:35 PM 54.7 °F - 45.5 °F 71% 29.88 in 10.0 mi South 11.5 mph 24.2 mph N/A   Clear
10:55 PM 54.9 °F - 45.3 °F 70% 29.88 in 10.0 mi South 12.7 mph 21.9 mph N/A   Clear
11:15 PM 54.9 °F - 45.3 °F 70% 29.88 in 10.0 mi South 15.0 mph 23.0 mph N/A   Clear
11:35 PM 54.9 °F - 45.1 °F 70% 29.88 in 10.0 mi South 17.3 mph 26.5 mph N/A   Clear
11:55 PM 54.9 °F - 45.1 °F 70% 29.89 in 10.0 mi South 11.5 mph 21.9 mph N/A   Clear